カタログに戻る

XSAT

運用中科学SSO
NORAD 37389·PAYLOAD·🇸🇬 Singapore

打ち上げ Apr 20, 2011 から Satish Dhawan Space Centre

Loading…

次のパス (今後24時間)

TLE

最新Source: Space-Track

元期: Sep 14, 2026, 14:18 UTC

1 37389U 11015C   26257.59636443  .00000008  00000-0  20988-4 0  9999
2 37389  98.3623 230.4064 0015289  80.5300 279.7607 14.25227883800416

AllMySatでXSATをリアルタイム追跡

Download on the App Store